Coleman, TX

1:10 AM CDT on May 30, 2017 (GMT -0500)
Coleman Municipal

Weather History for KCOM - April, 2014

Change the Weather History Date:

Sunday, April 13, 2014

  Actual Average (KABI) Record (KABI)
Temperature  
Mean Temperature 72 °F -  
Max Temperature 80 °F 73 °F 98 °F (1972)
Min Temperature 64 °F 49 °F 27 °F (1997)
Cooling Degree Days 7    
Growing Degree Days 22 (Base 50)    
Moisture  
Dew Point 62 °F    
Average Humidity 74    
Maximum Humidity 94    
Minimum Humidity 45    
Precipitation  
Precipitation 0.21 in - - ()
Sea Level Pressure  
Sea Level Pressure 29.72 in    
Wind  
Wind Speed 13 mph (South)    
Max Wind Speed 23 mph    
Max Gust Speed 44 mph    
Visibility 9 miles    
Events Rain , Thunderstorm    
Averages and records for this station are not official NWS values.
T = Trace of Precipitation, MM = Missing Value Source: NWS Daily Summary

Daily Weather History Graph

Daily Weather History Graph

Search for Another Location

Airport or City:

Trip Planner

Search our weather history database for the weather conditions in past years. The results will help you decide how hot, cold, wet, or windy it might be!

Date:

Astronomy

Apr. 13, 2014 Rise Set
Actual Time 7:11 AM CDT 8:05 PM CDT
Civil Twilight 6:46 AM CDT 8:30 PM CDT
Nautical Twilight 6:16 AM CDT 8:59 PM CDT
Astronomical Twilight 5:46 AM CDT 9:30 PM CDT
Moon 6:49 PM CDT (4/13) 6:04 AM CDT (4/13)
Length of Visible Light 13h 44m
Length of Day
12h 54m
Waxing Gibbous, 97% of the Moon is Illuminated
Apr 13
Waxing Gibbous
Apr 15
Full
Apr 22
Last Quarter
Apr 29
New
May 6
First Quarter

Hourly Weather History & Observations

Time (CDT) Temp. Heat Index Dew Point Humidity Pressure Visibility Wind Dir Wind Speed Gust Speed Precip Events Conditions
12:15 AM 76.3 °F - 53.8 °F 45% 29.77 in 10.0 mi SSW 13.8 mph 19.6 mph N/A   Clear
12:35 AM 75.9 °F - 54.1 °F 47% 29.77 in 10.0 mi SSW 12.7 mph - N/A   Clear
12:55 AM 75.4 °F - 54.7 °F 48% 29.78 in 10.0 mi SSW 9.2 mph - N/A   Clear
1:15 AM 74.8 °F - 56.5 °F 53% 29.79 in 10.0 mi SSW 11.5 mph 18.4 mph N/A   Clear
1:35 AM 74.3 °F - 59.2 °F 59% 29.79 in 10.0 mi SSW 11.5 mph 19.6 mph N/A   Clear
1:55 AM 73.8 °F - 61.0 °F 64% 29.78 in 10.0 mi South 15.0 mph 20.7 mph N/A   Clear
2:15 AM 73.8 °F - 61.7 °F 66% 29.78 in 10.0 mi South 13.8 mph 21.9 mph N/A   Mostly Cloudy
2:35 AM 73.0 °F - 61.9 °F 68% 29.77 in 10.0 mi South 15.0 mph 19.6 mph N/A   Mostly Cloudy
2:55 AM 72.5 °F - 61.9 °F 69% 29.77 in 10.0 mi South 15.0 mph 18.4 mph N/A   Clear
3:15 AM 72.1 °F - 61.9 °F 70% 29.77 in 10.0 mi South 13.8 mph 19.6 mph N/A   Scattered Clouds
3:35 AM 72.0 °F - 61.7 °F 70% 29.77 in 10.0 mi South 13.8 mph 21.9 mph N/A   Mostly Cloudy
3:55 AM 71.8 °F - 61.7 °F 70% 29.76 in 10.0 mi South 12.7 mph 21.9 mph N/A   Scattered Clouds
4:15 AM 71.1 °F - 61.7 °F 72% 29.74 in 10.0 mi South 13.8 mph 21.9 mph N/A Rain Light Rain
4:35 AM 70.7 °F - 61.7 °F 73% 29.72 in 10.0 mi South 21.9 mph 31.1 mph N/A   Mostly Cloudy
4:55 AM 70.5 °F - 61.2 °F 72% 29.70 in 10.0 mi South 16.1 mph 26.5 mph N/A   Scattered Clouds
5:15 AM 69.8 °F - 61.5 °F 75% 29.68 in 10.0 mi South 23.0 mph 31.1 mph N/A   Scattered Clouds
5:35 AM 69.1 °F - 61.7 °F 77% 29.66 in 10.0 mi SSE 23.0 mph 33.4 mph N/A   Light Drizzle
5:55 AM 68.5 °F - 61.7 °F 79% 29.68 in 10.0 mi South 17.3 mph 29.9 mph N/A   Scattered Clouds
6:15 AM 68.2 °F - 61.7 °F 80% 29.68 in 10.0 mi SSE 16.1 mph 20.7 mph N/A   Scattered Clouds
6:35 AM 68.0 °F - 61.7 °F 80% 29.70 in 10.0 mi South 16.1 mph 21.9 mph N/A   Scattered Clouds
6:55 AM 68.0 °F - 61.5 °F 80% 29.72 in 10.0 mi South 17.3 mph 23.0 mph N/A   Scattered Clouds
7:15 AM 68.0 °F - 61.5 °F 80% 29.76 in 10.0 mi WSW 15.0 mph 20.7 mph N/A   Mostly Cloudy
7:35 AM 68.5 °F - 61.7 °F 79% 29.81 in 10.0 mi WSW 12.7 mph 17.3 mph N/A   Drizzle
7:55 AM 66.9 °F - 63.0 °F 87% 29.81 in 5.0 mi SW 5.8 mph - 0.03 in Rain Light Rain
8:15 AM 66.7 °F - 63.5 °F 89% 29.80 in 7.0 mi SSW 9.2 mph - 0.01 in   Light Drizzle
8:35 AM 66.7 °F - 63.5 °F 89% 29.80 in 5.0 mi South 5.8 mph - 0.01 in   Drizzle
8:55 AM 66.4 °F - 63.9 °F 92% 29.81 in 5.0 mi South 10.4 mph - 0.02 in Rain , Thunderstorm Thunderstorms and Rain
9:15 AM 66.2 °F - 64.2 °F 93% 29.81 in 2.5 mi SSW 8.1 mph - 0.05 in Rain Heavy Rain
9:35 AM 66.2 °F - 64.4 °F 94% 29.81 in 4.0 mi South 9.2 mph - 0.11 in Rain Rain
9:55 AM 66.4 °F - 64.4 °F 93% 29.83 in 5.0 mi South 6.9 mph - 0.12 in Rain Light Rain
10:15 AM 66.4 °F - 64.4 °F 93% 29.81 in 5.0 mi South 6.9 mph - 0.02 in Rain Light Rain
10:35 AM 66.6 °F - 64.4 °F 93% 29.78 in 5.0 mi South 11.5 mph - 0.03 in Rain Light Rain
10:55 AM 67.3 °F - 65.5 °F 94% 29.77 in 4.0 mi South 12.7 mph - 0.03 in Rain Light Rain
11:15 AM 68.0 °F - 65.8 °F 93% 29.78 in 5.0 mi South 9.2 mph - N/A   Mostly Cloudy
11:35 AM 68.9 °F - 66.0 °F 90% 29.76 in 5.0 mi South 11.5 mph 18.4 mph N/A   Mostly Cloudy
11:55 AM 69.3 °F - 65.7 °F 88% 29.76 in 7.0 mi South 11.5 mph - 0.01 in   Mostly Cloudy
12:15 PM 69.8 °F - 65.3 °F 86% 29.75 in 10.0 mi South 11.5 mph 17.3 mph N/A   Scattered Clouds
12:35 PM 70.7 °F - 64.8 °F 81% 29.74 in 10.0 mi South 12.7 mph 18.4 mph N/A   Clear
12:55 PM 71.1 °F - 63.9 °F 78% 29.73 in 10.0 mi SSW 15.0 mph - N/A   Clear
1:15 PM 72.5 °F - 64.0 °F 75% 29.72 in 10.0 mi South 17.3 mph 24.2 mph N/A   Clear
1:35 PM 73.2 °F - 64.0 °F 73% 29.70 in 10.0 mi South 17.3 mph 25.3 mph N/A   Clear
1:55 PM 75.0 °F - 64.9 °F 71% 29.70 in 10.0 mi South 18.4 mph 24.2 mph N/A   Clear
2:15 PM 75.7 °F - 64.8 °F 69% 29.70 in 10.0 mi South 19.6 mph 26.5 mph N/A   Clear
2:35 PM 75.7 °F - 64.2 °F 67% 29.69 in 10.0 mi South 16.1 mph 26.5 mph N/A   Scattered Clouds
2:55 PM 77.0 °F - 64.6 °F 65% 29.68 in 10.0 mi SSW 18.4 mph 25.3 mph N/A   Scattered Clouds
3:15 PM 77.5 °F - 63.5 °F 62% 29.66 in 10.0 mi South 18.4 mph 29.9 mph N/A   Clear
3:35 PM 78.8 °F - 63.1 °F 59% 29.66 in 10.0 mi SSW 19.6 mph 24.2 mph N/A   Clear
3:55 PM 80.2 °F 81.6 °F 63.1 °F 56% 29.65 in 10.0 mi South 17.3 mph 26.5 mph N/A   Clear
4:35 PM 77.2 °F - 62.1 °F 59% 29.67 in 10.0 mi WSW 13.8 mph 19.6 mph N/A Rain Rain
4:55 PM 71.4 °F - 53.1 °F 52% 29.64 in 10.0 mi SSW 23.0 mph 43.7 mph N/A Rain , Thunderstorm Light Thunderstorms and Rain
5:15 PM 69.8 °F - 59.4 °F 69% 29.63 in 10.0 mi SSW 8.1 mph 23.0 mph N/A Thunderstorm Clear
5:35 PM 72.0 °F - 59.5 °F 65% 29.62 in 10.0 mi SSE 9.2 mph - N/A   Clear
5:55 PM 70.5 °F - 59.0 °F 67% 29.62 in 10.0 mi SSE 10.4 mph 18.4 mph N/A   Clear
6:15 PM 71.6 °F - 59.2 °F 65% 29.62 in 10.0 mi SSE 15.0 mph 19.6 mph N/A   Clear
6:35 PM 71.6 °F - 59.9 °F 66% 29.62 in 10.0 mi SSE 12.7 mph 17.3 mph N/A   Clear
6:55 PM 72.0 °F - 59.2 °F 64% 29.63 in 10.0 mi SSE 13.8 mph 20.7 mph N/A   Clear
7:15 PM 71.6 °F - 57.4 °F 61% 29.63 in 10.0 mi SSE 10.4 mph 18.4 mph N/A   Clear
7:35 PM 71.2 °F - 59.4 °F 66% 29.63 in 10.0 mi SSE 10.4 mph - N/A   Clear
7:55 PM 70.2 °F - 60.1 °F 70% 29.63 in 10.0 mi SSE 13.8 mph 18.4 mph N/A   Clear
8:15 PM 69.3 °F - 60.3 °F 73% 29.65 in 10.0 mi South 9.2 mph - N/A   Clear
8:35 PM 68.2 °F - 60.8 °F 77% 29.65 in 10.0 mi South 6.9 mph - N/A   Clear
8:55 PM 68.0 °F - 61.0 °F 78% 29.66 in 10.0 mi South 5.8 mph - N/A   Clear
9:15 PM 67.1 °F - 61.2 °F 81% 29.67 in 10.0 mi South 8.1 mph - N/A   Clear
9:35 PM 67.1 °F - 61.3 °F 82% 29.67 in 10.0 mi South 6.9 mph - N/A   Clear
9:55 PM 67.3 °F - 61.2 °F 81% 29.68 in 10.0 mi SSE 5.8 mph - N/A   Clear
10:15 PM 66.9 °F - 61.2 °F 82% 29.68 in 10.0 mi South 5.8 mph - N/A   Clear
10:35 PM 66.4 °F - 61.2 °F 83% 29.69 in 10.0 mi South 8.1 mph - N/A   Clear
10:55 PM 67.1 °F - 61.0 °F 81% 29.68 in 10.0 mi South 11.5 mph - N/A   Clear
11:35 PM 64.9 °F - 60.8 °F 86% 29.69 in 10.0 mi South 8.1 mph - N/A   Clear
11:55 PM 65.3 °F - 60.8 °F 85% 29.69 in 10.0 mi South 6.9 mph - N/A   Clear